STARLINK-33678, 63509

Orbit data source: Space-Track

STARLINK-33678, 63509 is a payload satellite owned by SpaceX/Seattle (US) in LEO that was launched on Mon, 07 Apr 2025 UTC via an FALCON 9 launch vehicle from the Air Force Western Test Range (AFWTR). Payload-class satellites include a variety of spacecraft equipped with specific instruments for various scientific and technological missions. These include communications satellites like Starlink; space stations such as the ISS; scientific satellites like the Hubble; Earth observation satellites from companies like Planet Labs, Umbra, and HawkEye 360; GPS; miniature CubeSats for education and research; and military/defense satellites.

Loading next visibility...
Identifier
63509, 2025-071S
Orbit
LEO
Country
Flag of USUS
Related business
Manufacturer
SpaceX/Seattle
Mission
Operational Commercial Communications
Bus & Motor
STARLINK V2MO, Unknown motor
Mass
575 kg wet, ~530 kg dry
Launch date (UTC)
2025-04-07 (10 months ago)
Launch vehicle
FALCON 9
Launch site
Air Force Western Test Range (AFWTR)
Object type
Payload
Rocket body
Debris
Shape & HBR
Box + 2 Pan, 17.7 m
Radar Cross Section
36.964 m², Large (>1 m²)

Expand to show TLE details & history
Last TLE update: 10 hours ago

TLE from 10 hours ago
0 STARLINK-33678
1 63509U 25071S   26036.97584074  .00022721  00000-0  77757-3 0  9999
2 63509  53.1567 287.2449 0001356  89.8003 270.3153 15.30172101 47644
Epoch: 2026-02-05T23:25Z
TLE epoch observation values (Epoch: 2026-02-05T23:25:12.639Z)
Latitude
-0.00005°
Longitude
159.82185°
Altitude
476.193 km
Speed
7.629 km/s
True Right ascension
19h 08m 58s
True Declination
0° 00' 00"
Sunlit
Object was in daylight at epoch
Visualization orbit readout
Latitude
Unknown
Longitude
Unknown
Altitude
Unknown
Speed
Unknown
Apparent Right ascension
Unknown
Apparent Declination
Unknown
Sunlit
N/A
Visualization observer readout
Local Sidereal Time
11:38:07
Azimuth
Unknown
Elevation
Unknown
Doppler factor
Unknown
Orbital elements
Apogee altitude
476.485 km
Perigee altitude
474.626 km
Semi-major axis
6,853.692 km
Eccentricity
0.00014
Inclination
53.1567°
RAAN
287.2449°
Arg. of periapsis
89.8003°
True anomaly
270.29976°
Mean anomaly
270.3153°
Eccentric anomaly
270.30753°
Mean motion
3.82522 °/min
Orbital period
94.11 mins
BSTAR
0.00077757
Loading maneuver chart data...
Computing Atmospheric mass density...
Loading historical data...
Loading historical data...
Loading historical data...
Loading historical data...
Loading historical data...
Loading historical data...
Loading historical data...

Documentation

Showing up to 5 results
|